TimeEDT,TemperatureF,Dew PointF,Humidity,Sea Level PressureIn,VisibilityMPH,Wind Direction,Wind SpeedMPH,Gust SpeedMPH,PrecipitationIn,Events,Conditions,WindDirDegrees,DateUTC
12:53 AM,75.0,70.0,84,29.70,10.0,Calm,Calm,-,N/A,,Mostly Cloudy,0,2013-06-30 04:53:00
1:53 AM,75.0,70.0,84,29.70,10.0,Calm,Calm,-,N/A,,Mostly Cloudy,0,2013-06-30 05:53:00
2:53 AM,73.9,70.0,87,29.70,9.0,Calm,Calm,-,N/A,,Scattered Clouds,0,2013-06-30 06:53:00
3:18 AM,73.4,71.6,94,29.73,8.0,Calm,Calm,-,N/A,,Mostly Cloudy,0,2013-06-30 07:18:00
3:46 AM,73.4,71.6,94,29.73,7.0,Calm,Calm,-,N/A,,Overcast,0,2013-06-30 07:46:00
3:53 AM,73.9,71.1,91,29.69,7.0,Calm,Calm,-,N/A,,Overcast,0,2013-06-30 07:53:00
4:38 AM,73.4,71.6,94,29.73,8.0,Calm,Calm,-,N/A,,Overcast,0,2013-06-30 08:38:00
4:53 AM,73.9,71.1,91,29.70,9.0,Calm,Calm,-,N/A,,Overcast,0,2013-06-30 08:53:00
5:14 AM,73.4,71.6,94,29.74,8.0,Calm,Calm,-,N/A,,Overcast,0,2013-06-30 09:14:00
5:32 AM,73.4,71.6,94,29.75,6.0,Calm,Calm,-,N/A,,Overcast,0,2013-06-30 09:32:00
5:44 AM,73.4,71.6,94,29.75,7.0,Calm,Calm,-,N/A,,Overcast,0,2013-06-30 09:44:00
5:53 AM,73.9,71.1,91,29.72,7.0,Calm,Calm,-,N/A,,Overcast,0,2013-06-30 09:53:00
6:46 AM,73.4,71.6,94,29.77,6.0,Calm,Calm,-,N/A,,Mostly Cloudy,0,2013-06-30 10:46:00
6:53 AM,73.9,71.1,91,29.74,6.0,Calm,Calm,-,N/A,,Scattered Clouds,0,2013-06-30 10:53:00
7:32 AM,75.2,71.6,89,29.78,8.0,Calm,Calm,-,N/A,,Mostly Cloudy,0,2013-06-30 11:32:00
7:53 AM,75.9,72.0,87,29.75,9.0,Calm,Calm,-,N/A,,Overcast,0,2013-06-30 11:53:00
8:23 AM,75.2,71.6,89,29.79,9.0,South,3.5,-,N/A,,Mostly Cloudy,180,2013-06-30 12:23:00
8:36 AM,77.0,71.6,83,29.80,10.0,South,5.8,-,N/A,,Mostly Cloudy,170,2013-06-30 12:36:00
8:50 AM,77.0,71.6,83,29.80,10.0,South,3.5,-,N/A,,Mostly Cloudy,190,2013-06-30 12:50:00
8:53 AM,77.0,72.0,84,29.76,10.0,Calm,Calm,-,N/A,,Mostly Cloudy,0,2013-06-30 12:53:00
9:23 AM,78.8,71.6,78,29.80,10.0,South,3.5,-,N/A,,Mostly Cloudy,180,2013-06-30 13:23:00
9:34 AM,78.8,71.6,78,29.79,10.0,Calm,Calm,-,N/A,,Overcast,0,2013-06-30 13:34:00
9:44 AM,78.8,71.6,78,29.79,10.0,Variable,3.5,-,N/A,,Mostly Cloudy,0,2013-06-30 13:44:00
9:53 AM,80.1,72.0,76,29.76,10.0,Variable,5.8,-,N/A,,Mostly Cloudy,0,2013-06-30 13:53:00
10:13 AM,80.6,71.6,74,29.79,10.0,SSW,8.1,-,N/A,,Scattered Clouds,200,2013-06-30 14:13:00
10:53 AM,80.1,71.1,74,29.76,10.0,SW,3.5,-,N/A,,Scattered Clouds,220,2013-06-30 14:53:00
11:53 AM,80.1,71.1,74,29.77,10.0,South,3.5,-,0.00,Rain,Light Rain,180,2013-06-30 15:53:00
12:53 PM,84.0,71.1,65,29.76,10.0,Variable,3.5,-,0.00,,Clear,0,2013-06-30 16:53:00
1:53 PM,86.0,70.0,59,29.75,10.0,Variable,4.6,-,N/A,,Mostly Cloudy,0,2013-06-30 17:53:00
2:53 PM,86.0,71.1,61,29.73,10.0,South,5.8,-,N/A,,Clear,180,2013-06-30 18:53:00
3:53 PM,75.9,73.0,91,29.75,5.0,South,4.6,-,0.03,Rain,Light Rain,180,2013-06-30 19:53:00
4:53 PM,75.0,71.1,87,29.78,4.0,Calm,Calm,-,0.05,Rain,Light Rain,0,2013-06-30 20:53:00
5:53 PM,73.0,70.0,90,29.78,10.0,Variable,5.8,-,0.03,,Mostly Cloudy,0,2013-06-30 21:53:00
6:53 PM,72.0,68.0,87,29.79,10.0,SSW,4.6,-,N/A,,Partly Cloudy,210,2013-06-30 22:53:00
7:53 PM,71.1,66.9,87,29.81,10.0,Calm,Calm,-,N/A,,Overcast,0,2013-06-30 23:53:00
8:53 PM,71.1,68.0,90,29.83,10.0,WSW,4.6,-,0.00,Rain,Light Rain,240,2013-07-01 00:53:00
9:53 PM,70.0,66.9,90,29.82,10.0,Calm,Calm,-,0.01,,Scattered Clouds,0,2013-07-01 01:53:00
10:53 PM,71.1,68.0,90,29.86,10.0,Calm,Calm,-,0.01,Rain,Light Rain,0,2013-07-01 02:53:00
11:53 PM,70.0,68.0,93,29.84,10.0,ENE,3.5,-,0.02,,Mostly Cloudy,60,2013-07-01 03:53:00